| time (UTC) | temp F | wind direction | speed knots | gust knots | rain 1hr in | rain 24hr in | rain mn in | humidity % | barometer mb |
| 20260906101405 | 71 | 101 | 0.0 | 0.0 | 0.00 | 0.00 | 0.00 | 99 | 1013.0 |
| 20260906100901 | 71 | 98 | 0.0 | 0.0 | 0.00 | 0.00 | 0.00 | 99 | 1013.3 |
| 20260906100400 | 71 | 103 | 0.0 | 0.0 | 0.00 | 0.00 | 0.00 | 99 | 1013.2 |
| 20260906095855 | 71 | 103 | 0.0 | 0.0 | 0.00 | 0.00 | 0.00 | 99 | 1012.8 |
| 20260906095350 | 71 | 101 | 0.0 | 0.0 | 0.00 | 0.00 | 0.00 | 99 | 1012.7 |
| 20260906094850 | 71 | 102 | 0.0 | 0.0 | 0.00 | 0.00 | 0.00 | 99 | 1013.1 |
| 20260906094344 | 71 | 101 | 0.0 | 0.0 | 0.00 | 0.00 | 0.00 | 99 | 1012.8 |
| 20260906093836 | 71 | 102 | 0.0 | 0.0 | 0.00 | 0.00 | 0.00 | 99 | 1012.9 |
| 20260906093331 | 71 | 103 | 0.0 | 0.0 | 0.00 | 0.00 | 0.00 | 99 | 1012.9 |
| 20260906092825 | 71 | 103 | 0.0 | 0.0 | 0.00 | 0.00 | 0.00 | 99 | 1012.9 |
| 20260906092320 | 71 | 104 | 0.0 | 0.0 | 0.00 | 0.00 | 0.00 | 99 | 1012.8 |
| 20260906091816 | 71 | 104 | 0.0 | 0.0 | 0.00 | 0.00 | 0.00 | 99 | 1012.9 |
| 20260906091311 | 71 | 104 | 0.0 | 0.0 | 0.00 | 0.00 | 0.00 | 99 | 1012.7 |
| 20260906090808 | 71 | 104 | 0.0 | 0.0 | 0.00 | 0.00 | 0.00 | 99 | 1013.0 |
| 20260906090307 | 71 | 106 | 0.0 | 0.0 | 0.00 | 0.00 | 0.00 | 99 | 1013.0 |
| 20260906085806 | 71 | 106 | 0.0 | 0.0 | 0.00 | 0.00 | 0.00 | 99 | 1012.8 |
| 20260906085259 | 72 | 104 | 0.0 | 0.0 | 0.00 | 0.00 | 0.00 | 99 | 1012.8 |
| 20260906084755 | 71 | 102 | 0.0 | 0.0 | 0.00 | 0.00 | 0.00 | 99 | 1012.6 |
| 20260906084255 | 72 | 102 | 0.0 | 0.0 | 0.00 | 0.00 | 0.00 | 99 | 1012.7 |
| 20260906083749 | 72 | 106 | 0.0 | 0.0 | 0.00 | 0.00 | 0.00 | 99 | 1012.8 |
| 20260906083244 | 72 | 104 | 0.0 | 0.0 | 0.00 | 0.00 | 0.00 | 99 | 1012.4 |
| 20260906082734 | 72 | 103 | 0.0 | 0.0 | 0.00 | 0.00 | 0.00 | 99 | 1012.4 |
| 20260906082229 | 72 | 105 | 0.0 | 0.0 | 0.00 | 0.00 | 0.00 | 99 | 1012.5 |
| 20260906081725 | 72 | 103 | 0.0 | 0.0 | 0.00 | 0.00 | 0.00 | 99 | 1012.3 |
| 20260906081225 | 72 | 101 | 0.0 | 0.0 | 0.00 | 0.00 | 0.00 | 99 | 1012.8 |
| 20260906080721 | 72 | 99 | 0.0 | 0.0 | 0.00 | 0.00 | 0.00 | 99 | 1012.6 |
| 20260906080218 | 72 | 98 | 0.0 | 0.0 | 0.00 | 0.00 | 0.00 | 99 | 1012.5 |
| 20260906075712 | 72 | 98 | 0.0 | 0.0 | 0.00 | 0.00 | 0.00 | 99 | 1012.3 |
| 20260906075207 | 72 | 96 | 0.0 | 0.0 | 0.00 | 0.00 | 0.00 | 99 | 1012.6 |
| 20260906074702 | 72 | 104 | 0.0 | 0.0 | 0.00 | 0.00 | 0.00 | 99 | 1012.5 |
| 20260906074201 | 72 | 106 | 0.0 | 0.0 | 0.00 | 0.00 | 0.00 | 99 | 1012.5 |
| 20260906073656 | 72 | 103 | 0.0 | 0.0 | 0.00 | 0.00 | 0.00 | 99 | 1012.7 |
| 20260906073151 | 72 | 104 | 0.0 | 0.0 | 0.00 | 0.00 | 0.00 | 99 | 1012.6 |
| 20260906072646 | 72 | 107 | 0.0 | 0.0 | 0.00 | 0.00 | 0.00 | 99 | 1012.6 |
| 20260906072136 | 73 | 103 | 0.0 | 0.0 | 0.00 | 0.00 | 0.00 | 99 | 1012.5 |
| 20260906071632 | 73 | 93 | 0.0 | 0.9 | 0.00 | 0.00 | 0.00 | 99 | 1012.6 |
| 20260906071126 | 73 | 78 | 0.9 | 0.9 | 0.00 | 0.00 | 0.00 | 99 | 1012.7 |
| 20260906070623 | 73 | 76 | 0.0 | 0.0 | 0.00 | 0.00 | 0.00 | 99 | 1012.8 |
| 20260906070118 | 73 | 103 | 0.0 | 0.0 | 0.00 | 0.00 | 0.00 | 99 | 1012.6 |
| 20260906065618 | 72 | 87 | 0.0 | 0.0 | 0.00 | 0.00 | 0.00 | 99 | 1012.6 |
| 20260906065113 | 72 | 90 | 0.0 | 0.0 | 0.00 | 0.00 | 0.00 | 99 | 1012.6 |
| 20260906064609 | 72 | 89 | 0.0 | 0.0 | 0.00 | 0.00 | 0.00 | 99 | 1012.7 |
| 20260906064104 | 72 | 95 | 0.0 | 0.0 | 0.00 | 0.00 | 0.00 | 99 | 1012.6 |
| 20260906063559 | 72 | 104 | 0.0 | 0.0 | 0.00 | 0.00 | 0.00 | 99 | 1012.8 |
| 20260906063055 | 72 | 105 | 0.0 | 0.0 | 0.00 | 0.00 | 0.00 | 99 | 1012.6 |
| 20260906062551 | 72 | 103 | 0.0 | 0.0 | 0.00 | 0.00 | 0.00 | 99 | 1012.8 |
| 20260906062044 | 72 | 100 | 0.0 | 0.0 | 0.00 | 0.00 | 0.00 | 99 | 1013.1 |
| 20260906061541 | 72 | 102 | 0.0 | 0.0 | 0.00 | 0.00 | 0.00 | 99 | 1012.9 |
| 20260906061040 | 72 | 104 | 0.0 | 0.0 | 0.00 | 0.00 | 0.00 | 99 | 1013.0 |
| 20260906060537 | 72 | 105 | 0.0 | 0.0 | 0.00 | 0.00 | 0.00 | 99 | 1013.0 |
| 20260906060034 | 72 | 105 | 0.0 | 0.0 | 0.00 | 0.00 | 0.00 | 99 | 1013.0 |
| 20260906055529 | 72 | 103 | 0.0 | 0.0 | 0.00 | 0.00 | 0.00 | 99 | 1013.2 |
| 20260906055025 | 72 | 100 | 0.0 | 0.0 | 0.00 | 0.00 | 0.00 | 99 | 1013.4 |
| 20260906054525 | 72 | 98 | 0.0 | 0.0 | 0.00 | 0.00 | 0.00 | 99 | 1013.3 |
| 20260906054020 | 72 | 104 | 0.0 | 0.0 | 0.00 | 0.00 | 0.00 | 99 | 1013.6 |
| 20260906053516 | 73 | 106 | 0.0 | 0.0 | 0.00 | 0.00 | 0.00 | 99 | 1013.5 |
| 20260906053012 | 73 | 115 | 0.0 | 0.0 | 0.00 | 0.00 | 0.00 | 99 | 1013.6 |
| 20260906052507 | 73 | 98 | 0.0 | 0.0 | 0.00 | 0.00 | 0.00 | 99 | 1013.6 |
| 20260906052004 | 73 | 100 | 0.0 | 0.0 | 0.00 | 0.00 | 0.00 | 99 | 1013.2 |
| 20260906051459 | 73 | 97 | 0.0 | 0.0 | 0.00 | 0.00 | 0.00 | 99 | 1013.3 |
| 20260906050954 | 73 | 98 | 0.0 | 0.0 | 0.00 | 0.00 | 0.00 | 99 | 1013.5 |
| 20260906050454 | 73 | 98 | 0.0 | 0.0 | 0.00 | 0.00 | 0.00 | 99 | 1013.4 |
| 20260906045948 | 73 | 93 | 0.0 | 0.0 | 0.00 | 0.00 | 0.00 | 99 | 1013.5 |
| 20260906045447 | 73 | 106 | 0.0 | 0.0 | 0.00 | 0.00 | 0.00 | 99 | 1013.5 |
| 20260906044943 | 73 | 100 | 0.0 | 0.0 | 0.00 | 0.00 | 0.00 | 99 | 1013.8 |
| 20260906044438 | 73 | 88 | 0.0 | 0.0 | 0.00 | 0.00 | 0.00 | 99 | 1013.6 |
| 20260906043933 | 73 | 104 | 0.0 | 0.0 | 0.00 | 0.00 | 0.00 | 99 | 1013.5 |
| 20260906043429 | 72 | 92 | 0.0 | 0.0 | 0.00 | 0.00 | 0.00 | 99 | 1013.7 |
| 20260906042924 | 72 | 105 | 0.0 | 0.0 | 0.00 | 0.00 | 0.00 | 99 | 1013.6 |
| 20260906042418 | 73 | 106 | 0.0 | 0.0 | 0.00 | 0.00 | 0.00 | 99 | 1013.5 |
| 20260906041913 | 72 | 93 | 0.0 | 0.0 | 0.00 | 0.00 | 0.00 | 99 | 1013.7 |
| 20260906041409 | 72 | 104 | 0.0 | 0.0 | 0.00 | 0.00 | 0.00 | 99 | 1013.7 |
| 20260906040909 | 73 | 111 | 0.0 | 0.0 | 0.00 | 0.00 | 0.00 | 99 | 1013.8 |
| 20260906040404 | 73 | 102 | 0.0 | 0.0 | 0.00 | 0.00 | 0.00 | 99 | 1013.8 |
| 20260906035859 | 73 | 105 | 0.0 | 0.0 | 0.00 | 0.11 | 0.11 | 99 | 1013.8 |
| 20260906035355 | 73 | 107 | 0.0 | 0.0 | 0.00 | 0.11 | 0.11 | 99 | 1014.0 |
| 20260906034850 | 73 | 86 | 0.0 | 0.0 | 0.00 | 0.11 | 0.11 | 99 | 1014.0 |
| 20260906034344 | 73 | 105 | 0.0 | 0.0 | 0.00 | 0.11 | 0.11 | 99 | 1013.9 |
| 20260906033840 | 73 | 96 | 0.0 | 0.0 | 0.00 | 0.11 | 0.11 | 99 | 1014.2 |
| 20260906033339 | 73 | 89 | 0.0 | 0.0 | 0.00 | 0.11 | 0.11 | 99 | 1014.1 |
| 20260906032836 | 73 | 107 | 0.0 | 0.0 | 0.00 | 0.11 | 0.11 | 99 | 1013.9 |
| 20260906032332 | 73 | 101 | 0.0 | 0.0 | 0.00 | 0.11 | 0.11 | 99 | 1013.9 |
| 20260906031827 | 73 | 105 | 0.0 | 0.0 | 0.00 | 0.11 | 0.11 | 99 | 1013.8 |
| 20260906031322 | 73 | 96 | 0.0 | 0.0 | 0.00 | 0.11 | 0.11 | 99 | 1013.8 |
| 20260906030822 | 73 | 110 | 0.0 | 0.0 | 0.00 | 0.11 | 0.11 | 99 | 1014.1 |
| 20260906030317 | 73 | 111 | 0.0 | 0.0 | 0.00 | 0.11 | 0.11 | 99 | 1014.0 |
| 20260906025817 | 74 | 86 | 0.0 | 0.0 | 0.00 | 0.11 | 0.11 | 99 | 1013.9 |
| 20260906025311 | 74 | 104 | 0.0 | 0.0 | 0.00 | 0.11 | 0.11 | 99 | 1014.4 |
| 20260906024810 | 74 | 107 | 0.0 | 0.0 | 0.00 | 0.11 | 0.11 | 99 | 1014.1 |
| 20260906024304 | 74 | 104 | 0.0 | 0.0 | 0.00 | 0.11 | 0.11 | 99 | 1014.1 |
| 20260906023759 | 74 | 99 | 0.0 | 0.0 | 0.00 | 0.11 | 0.11 | 99 | 1013.8 |
| 20260906023254 | 74 | 89 | 0.0 | 0.0 | 0.00 | 0.11 | 0.11 | 99 | 1013.7 |
| 20260906022750 | 74 | 103 | 0.0 | 0.0 | 0.00 | 0.11 | 0.11 | 98 | 1013.8 |
| 20260906022245 | 74 | 104 | 0.0 | 0.0 | 0.00 | 0.11 | 0.11 | 98 | 1013.8 |
| 20260906021741 | 74 | 105 | 0.0 | 0.0 | 0.00 | 0.11 | 0.11 | 98 | 1013.9 |
| 20260906021240 | 74 | 104 | 0.0 | 0.0 | 0.00 | 0.11 | 0.11 | 98 | 1013.9 |
| 20260906020735 | 74 | 99 | 0.0 | 0.0 | 0.00 | 0.11 | 0.11 | 98 | 1013.9 |
| 20260906020235 | 74 | 106 | 0.0 | 0.0 | 0.00 | 0.11 | 0.11 | 98 | 1013.9 |
| 20260906015730 | 75 | 103 | 0.0 | 0.0 | 0.00 | 0.11 | 0.11 | 98 | 1014.2 |
| 20260906015228 | 75 | 110 | 0.0 | 0.0 | 0.00 | 0.11 | 0.11 | 98 | 1013.8 |
| 20260906014723 | 74 | 97 | 0.0 | 0.0 | 0.00 | 0.11 | 0.11 | 98 | 1013.7 |
| 20260906014219 | 74 | 104 | 0.0 | 0.0 | 0.00 | 0.11 | 0.11 | 98 | 1013.6 |
| 20260906013715 | 74 | 103 | 0.0 | 0.0 | 0.00 | 0.11 | 0.11 | 98 | 1013.6 |
| 20260906013214 | 74 | 105 | 0.0 | 0.0 | 0.00 | 0.11 | 0.11 | 98 | 1013.8 |
| 20260906012710 | 75 | 99 | 0.0 | 0.0 | 0.00 | 0.11 | 0.11 | 98 | 1013.2 |
| 20260906012204 | 74 | 109 | 0.0 | 0.0 | 0.00 | 0.11 | 0.11 | 98 | 1013.3 |
| 20260906011700 | 74 | 95 | 0.0 | 0.0 | 0.00 | 0.11 | 0.11 | 98 | 1013.1 |
| 20260906011154 | 74 | 97 | 0.0 | 0.0 | 0.00 | 0.11 | 0.11 | 98 | 1012.7 |
| 20260906010650 | 74 | 95 | 0.0 | 0.0 | 0.00 | 0.11 | 0.11 | 98 | 1013.0 |
| 20260906010146 | 74 | 104 | 0.0 | 0.0 | 0.00 | 0.11 | 0.11 | 98 | 1013.0 |
| 20260906005645 | 74 | 118 | 0.0 | 0.9 | 0.00 | 0.11 | 0.11 | 98 | 1013.2 |
| 20260906005144 | 74 | 94 | 0.0 | 0.0 | 0.00 | 0.11 | 0.11 | 98 | 1012.9 |
| 20260906004644 | 74 | 113 | 0.0 | 0.0 | 0.00 | 0.11 | 0.11 | 97 | 1012.6 |
| 20260906004139 | 74 | 92 | 0.0 | 0.0 | 0.00 | 0.11 | 0.11 | 97 | 1012.6 |
| 20260906003634 | 74 | 100 | 0.0 | 0.0 | 0.00 | 0.11 | 0.11 | 97 | 1012.4 |
| 20260906003130 | 74 | 102 | 0.0 | 0.0 | 0.00 | 0.11 | 0.11 | 97 | 1012.3 |
| 20260906002625 | 74 | 98 | 0.0 | 0.9 | 0.00 | 0.11 | 0.11 | 97 | 1012.4 |
| 20260906002119 | 74 | 94 | 0.0 | 0.0 | 0.00 | 0.11 | 0.11 | 97 | 1012.6 |
| 20260906001614 | 74 | 88 | 0.0 | 0.9 | 0.00 | 0.11 | 0.11 | 97 | 1012.6 |
| 20260906001109 | 74 | 103 | 0.0 | 0.0 | 0.00 | 0.11 | 0.11 | 97 | 1012.8 |
| 20260906000605 | 73 | 104 | 0.0 | 0.0 | 0.00 | 0.11 | 0.11 | 96 | 1012.8 |
| 20260906000100 | 74 | 110 | 0.0 | 0.9 | 0.00 | 0.11 | 0.11 | 96 | 1013.2 |
| 20260905235559 | 74 | 95 | 0.9 | 1.7 | 0.00 | 0.11 | 0.11 | 96 | 1012.8 |
| 20260905235054 | 73 | 77 | 0.9 | 1.7 | 0.00 | 0.11 | 0.11 | 96 | 1012.9 |
| 20260905234550 | 73 | 81 | 0.0 | 0.0 | 0.00 | 0.11 | 0.11 | 96 | 1012.4 |
| 20260905234044 | 73 | 97 | 0.0 | 0.0 | 0.00 | 0.11 | 0.11 | 95 | 1012.7 |
| 20260905233539 | 73 | 107 | 0.0 | 0.0 | 0.00 | 0.11 | 0.11 | 95 | 1012.7 |
| 20260905233039 | 74 | 100 | 0.0 | 0.0 | 0.07 | 0.11 | 0.11 | 95 | 1012.8 |
| 20260905232534 | 74 | 89 | 0.9 | 0.9 | 0.07 | 0.11 | 0.11 | 94 | 1012.8 |
| 20260905232030 | 73 | 106 | 0.0 | 0.9 | 0.12 | 0.10 | 0.10 | 94 | 1013.0 |
| 20260905231525 | 73 | 107 | 0.0 | 0.0 | 0.35 | 0.10 | 0.10 | 93 | 1013.0 |
| 20260905231021 | 74 | 113 | 0.9 | 0.9 | 0.35 | 0.08 | 0.08 | 92 | 1013.1 |
| 20260905230520 | 76 | 153 | 0.9 | 0.9 | 0.12 | 0.04 | 0.04 | 91 | 1013.4 |
| 20260905230019 | 78 | 98 | 0.0 | 0.9 | 0.00 | 0.02 | 0.02 | 90 | 1013.7 |
| 20260905225514 | 79 | 103 | 0.9 | 0.9 | 0.05 | 0.02 | 0.02 | 87 | 1014.0 |
| 20260905225009 | 82 | 61 | 2.6 | 6.1 | 0.12 | 0.02 | 0.02 | 82 | 1013.7 |
| 20260905224504 | 86 | 132 | 0.9 | 0.9 | 0.07 | 0.01 | 0.01 | 77 | 1013.3 |
| 20260905224003 | 89 | 200 | 1.7 | 2.6 | 0.00 | 0.00 | 0.00 | 66 | 1013.0 |
| 20260905223501 | 91 | 124 | 0.9 | 1.7 | 0.00 | 0.00 | 0.00 | 60 | 1012.6 |
| 20260905222956 | 92 | 143 | 0.9 | 0.9 | 0.00 | 0.00 | 0.00 | 57 | 1012.2 |
| 20260905222456 | 93 | 136 | 0.9 | 0.9 | 0.00 | 0.00 | 0.00 | 56 | 1011.8 |
| 20260905221951 | 94 | 98 | 0.9 | 1.7 | 0.00 | 0.00 | 0.00 | 54 | 1011.6 |
| 20260905221447 | 96 | 201 | 0.9 | 0.9 | 0.00 | 0.00 | 0.00 | 52 | 1011.4 |
| 20260905220943 | 98 | 99 | 0.0 | 0.0 | 0.00 | 0.00 | 0.00 | 48 | 1011.6 |
| 20260905220439 | 98 | 95 | 0.0 | 0.9 | 0.00 | 0.00 | 0.00 | 46 | 1011.3 |
| 20260905215938 | 98 | 103 | 0.0 | 0.0 | 0.00 | 0.00 | 0.00 | 47 | 1011.2 |
| 20260905215434 | 99 | 108 | 0.0 | 0.0 | 0.00 | 0.00 | 0.00 | 47 | 1010.9 |
| 20260905214930 | 98 | 87 | 0.0 | 0.0 | 0.00 | 0.00 | 0.00 | 46 | 1010.9 |
| 20260905214426 | 98 | 111 | 0.0 | 0.0 | 0.00 | 0.00 | 0.00 | 47 | 1010.8 |
| 20260905213926 | 98 | 103 | 0.0 | 0.0 | 0.00 | 0.00 | 0.00 | 47 | 1010.9 |
| 20260905213422 | 100 | 104 | 0.0 | 0.0 | 0.00 | 0.00 | 0.00 | 47 | 1010.9 |
| 20260905212917 | 100 | 96 | 0.0 | 0.0 | 0.00 | 0.00 | 0.00 | 46 | 1011.3 |
| 20260905212412 | 101 | 108 | 0.0 | 0.0 | 0.00 | 0.00 | 0.00 | 44 | 1011.4 |
| 20260905211911 | 102 | 101 | 0.0 | 0.0 | 0.00 | 0.00 | 0.00 | 43 | 1011.6 |
| 20260905211407 | 102 | 108 | 0.0 | 0.0 | 0.00 | 0.00 | 0.00 | 43 | 1011.4 |
| 20260905210903 | 102 | 115 | 0.0 | 0.0 | 0.00 | 0.00 | 0.00 | 43 | 1011.7 |
| 20260905210357 | 102 | 93 | 0.0 | 0.9 | 0.00 | 0.00 | 0.00 | 43 | 1011.7 |
| 20260905205856 | 101 | 108 | 0.0 | 0.9 | 0.00 | 0.00 | 0.00 | 44 | 1011.8 |
| 20260905205351 | 102 | 110 | 0.0 | 0.0 | 0.00 | 0.00 | 0.00 | 43 | 1011.6 |
| 20260905204850 | 102 | 111 | 0.0 | 0.0 | 0.00 | 0.00 | 0.00 | 44 | 1011.8 |
| 20260905204347 | 101 | 106 | 0.0 | 0.0 | 0.00 | 0.00 | 0.00 | 45 | 1011.7 |
| 20260905203845 | 100 | 118 | 0.0 | 0.0 | 0.00 | 0.00 | 0.00 | 45 | 1011.6 |
| 20260905203341 | 100 | 111 | 0.9 | 0.9 | 0.00 | 0.00 | 0.00 | 46 | 1011.6 |
| 20260905202837 | 100 | 118 | 0.9 | 0.9 | 0.00 | 0.00 | 0.00 | 47 | 1011.4 |
| 20260905202331 | 99 | 122 | 0.9 | 0.9 | 0.00 | 0.00 | 0.00 | 47 | 1011.7 |
| 20260905201827 | 99 | 106 | 0.0 | 0.9 | 0.00 | 0.00 | 0.00 | 47 | 1011.7 |
| 20260905201322 | 99 | 117 | 0.9 | 0.9 | 0.00 | 0.00 | 0.00 | 47 | 1011.8 |
| 20260905200816 | 99 | 91 | 2.6 | 2.6 | 0.00 | 0.00 | 0.00 | 47 | 1011.8 |
| 20260905200313 | 98 | 116 | 0.9 | 0.9 | 0.00 | 0.00 | 0.00 | 49 | 1012.0 |
| 20260905195810 | 97 | 95 | 0.9 | 0.9 | 0.00 | 0.00 | 0.00 | 49 | 1012.2 |
| 20260905195307 | 98 | 95 | 0.9 | 0.9 | 0.00 | 0.00 | 0.00 | 49 | 1012.2 |
| 20260905194802 | 97 | 99 | 0.0 | 0.0 | 0.00 | 0.00 | 0.00 | 48 | 1012.1 |
| 20260905194300 | 97 | 91 | 0.0 | 0.0 | 0.00 | 0.00 | 0.00 | 50 | 1012.4 |
| 20260905193755 | 98 | 90 | 0.9 | 1.7 | 0.00 | 0.00 | 0.00 | 48 | 1012.3 |
| 20260905193249 | 100 | 105 | 0.9 | 1.7 | 0.00 | 0.00 | 0.00 | 47 | 1012.3 |
| 20260905192739 | 100 | 89 | 0.9 | 2.6 | 0.00 | 0.00 | 0.00 | 45 | 1012.4 |
| 20260905192236 | 101 | 143 | 0.9 | 0.9 | 0.00 | 0.00 | 0.00 | 45 | 1012.1 |
| 20260905191735 | 100 | 98 | 0.9 | 0.9 | 0.00 | 0.00 | 0.00 | 47 | 1012.2 |
| 20260905191233 | 100 | 55 | 1.7 | 1.7 | 0.00 | 0.00 | 0.00 | 47 | 1012.5 |
| 20260905190732 | 98 | 89 | 0.9 | 1.7 | 0.00 | 0.00 | 0.00 | 48 | 1012.6 |
| 20260905190231 | 97 | 114 | 0.0 | 0.0 | 0.00 | 0.00 | 0.00 | 51 | 1012.3 |
| 20260905185730 | 96 | 121 | 0.0 | 0.0 | 0.00 | 0.00 | 0.00 | 52 | 1012.6 |
| 20260905185224 | 96 | 92 | 0.0 | 0.0 | 0.00 | 0.00 | 0.00 | 52 | 1012.8 |
| 20260905184719 | 96 | 112 | 0.0 | 0.0 | 0.00 | 0.00 | 0.00 | 51 | 1012.9 |
| 20260905184218 | 96 | 106 | 0.0 | 0.0 | 0.00 | 0.00 | 0.00 | 52 | 1012.8 |
| 20260905183712 | 96 | 110 | 0.9 | 0.9 | 0.00 | 0.00 | 0.00 | 53 | 1013.0 |
| 20260905183207 | 97 | 94 | 0.9 | 0.9 | 0.00 | 0.00 | 0.00 | 55 | 1012.9 |
| 20260905182701 | 98 | 74 | 0.9 | 0.9 | 0.00 | 0.00 | 0.00 | 51 | 1013.0 |
| 20260905182201 | 99 | 112 | 0.0 | 0.0 | 0.00 | 0.00 | 0.00 | 48 | 1013.1 |
| 20260905181656 | 100 | 344 | 0.9 | 0.9 | 0.00 | 0.00 | 0.00 | 48 | 1013.1 |
| 20260905181149 | 100 | 62 | 0.9 | 1.7 | 0.00 | 0.00 | 0.00 | 48 | 1013.3 |
| 20260905180644 | 99 | 19 | 1.7 | 1.7 | 0.00 | 0.00 | 0.00 | 49 | 1013.3 |
| 20260905180140 | 98 | 93 | 0.9 | 0.9 | 0.00 | 0.00 | 0.00 | 51 | 1013.5 |
| 20260905175638 | 96 | 92 | 1.7 | 1.7 | 0.00 | 0.00 | 0.00 | 52 | 1013.6 |
| 20260905175134 | 96 | 105 | 0.0 | 0.0 | 0.00 | 0.00 | 0.00 | 53 | 1013.4 |
| 20260905174630 | 96 | 105 | 0.0 | 0.0 | 0.00 | 0.00 | 0.00 | 53 | 1013.4 |
| 20260905174125 | 96 | 104 | 0.0 | 0.0 | 0.00 | 0.00 | 0.00 | 53 | 1013.9 |
| 20260905173621 | 96 | 100 | 0.0 | 0.0 | 0.00 | 0.00 | 0.00 | 53 | 1014.0 |
| 20260905173117 | 97 | 106 | 0.0 | 0.0 | 0.00 | 0.00 | 0.00 | 51 | 1013.8 |
| 20260905172615 | 97 | 114 | 0.0 | 0.9 | 0.00 | 0.00 | 0.00 | 51 | 1013.9 |
| 20260905172110 | 98 | 103 | 0.9 | 1.7 | 0.00 | 0.00 | 0.00 | 51 | 1013.9 |
| 20260905171607 | 97 | 106 | 0.0 | 0.9 | 0.00 | 0.00 | 0.00 | 51 | 1013.7 |
| 20260905171102 | 97 | 97 | 0.9 | 0.9 | 0.00 | 0.00 | 0.00 | 52 | 1013.8 |
| 20260905170559 | 97 | 105 | 0.9 | 1.7 | 0.00 | 0.00 | 0.00 | 52 | 1014.2 |
| 20260905170054 | 96 | 176 | 1.7 | 1.7 | 0.00 | 0.00 | 0.00 | 52 | 1014.0 |
| 20260905165549 | 96 | 185 | 1.7 | 1.7 | 0.00 | 0.00 | 0.00 | 52 | 1014.0 |
| 20260905165044 | 96 | 119 | 0.0 | 0.9 | 0.00 | 0.00 | 0.00 | 53 | 1014.3 |
| 20260905164543 | 96 | 79 | 0.9 | 0.9 | 0.00 | 0.00 | 0.00 | 54 | 1014.5 |
| 20260905164038 | 95 | 81 | 0.9 | 0.9 | 0.00 | 0.00 | 0.00 | 56 | 1014.5 |
| 20260905163535 | 95 | 109 | 0.0 | 0.0 | 0.00 | 0.00 | 0.00 | 57 | 1014.5 |
| 20260905163031 | 94 | 107 | 0.0 | 0.9 | 0.00 | 0.00 | 0.00 | 57 | 1014.6 |
| 20260905162526 | 95 | 114 | 0.9 | 0.9 | 0.00 | 0.00 | 0.00 | 57 | 1015.0 |
| 20260905162020 | 95 | 119 | 0.9 | 0.9 | 0.00 | 0.00 | 0.00 | 56 | 1014.9 |
| 20260905161515 | 94 | 107 | 0.0 | 0.9 | 0.00 | 0.00 | 0.00 | 58 | 1015.0 |
| 20260905161012 | 93 | 98 | 0.0 | 0.0 | 0.00 | 0.00 | 0.00 | 58 | 1015.1 |
| 20260905160505 | 93 | 122 | 0.9 | 0.9 | 0.00 | 0.00 | 0.00 | 59 | 1015.4 |
| 20260905160000 | 93 | 85 | 0.0 | 0.0 | 0.00 | 0.00 | 0.00 | 59 | 1015.2 |
| 20260905155455 | 93 | 107 | 0.0 | 0.9 | 0.00 | 0.00 | 0.00 | 57 | 1015.3 |
| 20260905154953 | 93 | 71 | 0.9 | 0.9 | 0.00 | 0.00 | 0.00 | 58 | 1015.4 |
| 20260905154449 | 93 | 51 | 0.0 | 0.0 | 0.00 | 0.00 | 0.00 | 59 | 1015.4 |
| 20260905153944 | 92 | 114 | 0.0 | 0.0 | 0.00 | 0.00 | 0.00 | 62 | 1015.2 |
| 20260905153440 | 91 | 99 | 0.0 | 0.0 | 0.00 | 0.00 | 0.00 | 63 | 1015.4 |
| 20260905152939 | 90 | 117 | 0.9 | 0.9 | 0.00 | 0.00 | 0.00 | 65 | 1015.5 |
| 20260905152439 | 90 | 124 | 0.9 | 0.9 | 0.00 | 0.00 | 0.00 | 67 | 1015.6 |
| 20260905151934 | 90 | 105 | 0.0 | 0.9 | 0.00 | 0.00 | 0.00 | 67 | 1015.4 |
| 20260905151430 | 89 | 81 | 0.9 | 0.9 | 0.00 | 0.00 | 0.00 | 69 | 1015.7 |
| 20260905150925 | 89 | 98 | 0.0 | 0.0 | 0.00 | 0.00 | 0.00 | 69 | 1015.6 |
| 20260905150424 | 89 | 8 | 0.9 | 2.6 | 0.00 | 0.00 | 0.00 | 70 | 1015.7 |
| 20260905145921 | 88 | 110 | 0.9 | 0.9 | 0.00 | 0.00 | 0.00 | 71 | 1015.6 |
| 20260905145415 | 88 | 76 | 0.0 | 0.9 | 0.00 | 0.00 | 0.00 | 71 | 1015.8 |
| 20260905144915 | 87 | 104 | 0.0 | 0.0 | 0.00 | 0.00 | 0.00 | 74 | 1015.9 |
| 20260905144405 | 86 | 106 | 0.0 | 0.0 | 0.00 | 0.00 | 0.00 | 74 | 1016.0 |
| 20260905143903 | 86 | 106 | 0.0 | 0.0 | 0.00 | 0.00 | 0.00 | 77 | 1015.9 |
| 20260905143358 | 86 | 105 | 0.9 | 0.9 | 0.00 | 0.00 | 0.00 | 78 | 1015.9 |
| 20260905142857 | 85 | 89 | 0.0 | 0.9 | 0.00 | 0.00 | 0.00 | 80 | 1015.8 |
| 20260905142355 | 84 | 104 | 0.0 | 0.0 | 0.00 | 0.00 | 0.00 | 81 | 1016.0 |
| 20260905141852 | 84 | 100 | 0.0 | 0.0 | 0.00 | 0.00 | 0.00 | 81 | 1015.8 |
| 20260905141347 | 83 | 112 | 0.0 | 0.9 | 0.00 | 0.00 | 0.00 | 83 | 1016.0 |
| 20260905140843 | 83 | 102 | 0.0 | 0.0 | 0.00 | 0.00 | 0.00 | 84 | 1016.1 |
| 20260905140338 | 82 | 104 | 0.0 | 0.0 | 0.00 | 0.00 | 0.00 | 87 | 1016.0 |
| 20260905135836 | 81 | 87 | 0.9 | 0.9 | 0.00 | 0.00 | 0.00 | 89 | 1015.9 |
| 20260905135332 | 80 | 93 | 0.0 | 0.0 | 0.00 | 0.00 | 0.00 | 92 | 1016.1 |
| 20260905134827 | 79 | 97 | 0.0 | 0.0 | 0.00 | 0.00 | 0.00 | 94 | 1016.1 |
| 20260905134320 | 78 | 109 | 0.0 | 0.0 | 0.00 | 0.00 | 0.00 | 95 | 1016.1 |
| 20260905133815 | 78 | 53 | 0.9 | 0.9 | 0.00 | 0.00 | 0.00 | 96 | 1015.9 |
| 20260905133311 | 78 | 102 | 0.0 | 0.0 | 0.00 | 0.00 | 0.00 | 96 | 1016.2 |
| 20260905132809 | 77 | 95 | 0.0 | 0.0 | 0.00 | 0.00 | 0.00 | 97 | 1016.2 |
| 20260905132306 | 77 | 106 | 0.0 | 0.0 | 0.00 | 0.00 | 0.00 | 97 | 1016.1 |
| 20260905131800 | 77 | 21 | 0.9 | 0.9 | 0.00 | 0.00 | 0.00 | 97 | 1016.1 |
| 20260905131255 | 76 | 105 | 0.0 | 0.0 | 0.00 | 0.00 | 0.00 | 97 | 1016.5 |
| 20260905130750 | 76 | 97 | 0.0 | 0.0 | 0.00 | 0.00 | 0.00 | 97 | 1016.6 |
| 20260905130249 | 76 | 105 | 0.0 | 0.0 | 0.00 | 0.00 | 0.00 | 97 | 1016.7 |
| 20260905125744 | 75 | 107 | 0.0 | 0.0 | 0.00 | 0.00 | 0.00 | 97 | 1016.5 |
| 20260905125239 | 75 | 107 | 0.0 | 0.0 | 0.00 | 0.00 | 0.00 | 97 | 1016.4 |
| 20260905124736 | 75 | 117 | 0.0 | 0.0 | 0.00 | 0.00 | 0.00 | 97 | 1016.6 |
| 20260905124231 | 75 | 103 | 0.0 | 0.0 | 0.00 | 0.00 | 0.00 | 97 | 1016.7 |
| 20260905123726 | 75 | 105 | 0.0 | 0.0 | 0.00 | 0.00 | 0.00 | 97 | 1016.5 |
| 20260905123224 | 75 | 108 | 0.0 | 0.0 | 0.00 | 0.00 | 0.00 | 97 | 1016.3 |
| 20260905122723 | 74 | 108 | 0.0 | 0.0 | 0.00 | 0.00 | 0.00 | 97 | 1016.2 |
| 20260905122217 | 74 | 108 | 0.0 | 0.0 | 0.00 | 0.00 | 0.00 | 97 | 1016.4 |
| 20260905121712 | 74 | 106 | 0.0 | 0.0 | 0.00 | 0.00 | 0.00 | 97 | 1016.4 |
| 20260905121209 | 74 | 100 | 0.0 | 0.0 | 0.00 | 0.00 | 0.00 | 97 | 1016.3 |
| 20260905120707 | 74 | 107 | 0.0 | 0.0 | 0.00 | 0.00 | 0.00 | 97 | 1016.2 |
| 20260905120201 | 74 | 106 | 0.0 | 0.0 | 0.00 | 0.00 | 0.00 | 97 | 1016.1 |
| 20260905115656 | 73 | 106 | 0.0 | 0.0 | 0.00 | 0.00 | 0.00 | 97 | 1016.1 |
| 20260905115151 | 73 | 105 | 0.0 | 0.0 | 0.00 | 0.00 | 0.00 | 97 | 1016.3 |
| 20260905114651 | 73 | 105 | 0.0 | 0.0 | 0.00 | 0.00 | 0.00 | 97 | 1015.9 |
| 20260905114149 | 73 | 106 | 0.0 | 0.0 | 0.00 | 0.00 | 0.00 | 97 | 1015.9 |
| 20260905113644 | 73 | 106 | 0.0 | 0.0 | 0.00 | 0.00 | 0.00 | 97 | 1015.9 |
| 20260905113139 | 73 | 106 | 0.0 | 0.0 | 0.00 | 0.00 | 0.00 | 97 | 1015.6 |
| 20260905112633 | 73 | 106 | 0.0 | 0.0 | 0.00 | 0.00 | 0.00 | 97 | 1015.9 |
| 20260905112130 | 73 | 106 | 0.0 | 0.0 | 0.00 | 0.00 | 0.00 | 97 | 1015.5 |
| 20260905111624 | 73 | 106 | 0.0 | 0.0 | 0.00 | 0.00 | 0.00 | 97 | 1015.6 |
| 20260905111123 | 73 | 106 | 0.0 | 0.0 | 0.00 | 0.00 | 0.00 | 97 | 1015.6 |
| 20260905110622 | 73 | 106 | 0.0 | 0.0 | 0.00 | 0.00 | 0.00 | 97 | 1015.7 |
| 20260905110118 | 73 | 106 | 0.0 | 0.0 | 0.00 | 0.00 | 0.00 | 97 | 1015.8 |
| 20260905105618 | 73 | 106 | 0.0 | 0.0 | 0.00 | 0.00 | 0.00 | 97 | 1015.6 |
| 20260905105117 | 73 | 106 | 0.0 | 0.0 | 0.00 | 0.00 | 0.00 | 97 | 1015.6 |
| 20260905104612 | 73 | 106 | 0.0 | 0.0 | 0.00 | 0.00 | 0.00 | 97 | 1015.5 |
| 20260905104107 | 73 | 106 | 0.0 | 0.0 | 0.00 | 0.00 | 0.00 | 97 | 1015.4 |
| 20260905103602 | 73 | 104 | 0.0 | 0.0 | 0.00 | 0.00 | 0.00 | 97 | 1015.6 |
| 20260905103058 | 73 | 104 | 0.0 | 0.0 | 0.00 | 0.00 | 0.00 | 96 | 1015.3 |
| 20260905102548 | 73 | 104 | 0.0 | 0.0 | 0.00 | 0.00 | 0.00 | 96 | 1015.3 |
| 20260905102045 | 73 | 104 | 0.0 | 0.0 | 0.00 | 0.00 | 0.00 | 96 | 1015.4 |